[[{"header":{"parameterUnit":"m.s-1","parameterCategory":1,"la1":30.2991,"la2":30.254,"lo1":-89.0895,"lo2":-89.0444,"dy":0.0017,"dx":0.0017,"nx":28,"ny":28,"refTime":"2024-07-16T09:00:00:Z","depth":0,"parameterNumber":2,"parameterNumberName":"U-component_of_WINDS"},"data":[0,0,0,0,0,0,0,0,0,0,0,0,0,0,0,0,0,0,0,0,0,0,0,0,0,0,0,0,0,0,0,0,0,0,0,0,0,0,0,0,0,0,0,0,0,0,0,0,0,0,0,0,0,0,0,0,0,0,2.0571,2.0572,0,2.0619,2.062,2.062,2.0632,2.0632,2.0632,2.0632,2.068,2.0682,2.0683,0,0,0,0,0,0,0,0,0,0,0,0,0,2.049,2.0492,2.0571,2.0572,2.0573,2.0619,2.062,2.0621,2.0633,2.0632,2.0632,2.0631,2.068,2.0681,2.0683,0,0,0,0,0,0,0,0,0,0,0,0,0,2.0531,2.0492,2.0571,2.0584,2.0586,2.0619,2.062,2.0621,2.0633,2.0632,2.0632,2.0631,2.0679,2.0681,2.0684,2.0707,0,0,2.0691,2.0692,0,0,0,0,0,0,0,0,2.0528,2.0534,2.0582,2.0583,2.0585,2.0619,2.0609,2.065,2.0633,2.0615,2.0632,2.0631,2.066,2.0664,2.0674,2.071,2.0712,2.0691,2.0692,2.0693,2.0694,0,0,0,0,0,0,0,2.0526,2.0532,2.059,2.0582,2.0585,2.0588,2.0593,2.0617,2.0639,2.0616,2.0617,2.0623,2.0661,2.0672,2.0675,2.0712,2.0691,2.0693,2.0695,2.0695,2.0771,2.0772,0,0,0,0,0,0,2.0521,2.0529,2.0589,2.0592,2.0555,2.059,2.0595,2.0609,2.0639,2.0643,2.0623,2.0623,2.0668,2.0673,2.0677,2.0708,2.0693,2.0696,2.0697,2.0771,2.0771,2.0772,0,0,0,0,0,0,2.0519,2.0526,2.0587,2.0561,2.0569,2.0591,2.0607,2.061,2.0621,2.0644,2.0649,2.063,2.0668,2.0674,2.07,2.071,2.0697,2.0699,2.077,2.0771,2.0772,2.0769,0,0,0,0,0,0,2.0516,2.0525,2.0534,2.0561,2.057,2.0609,2.0607,2.0611,2.0625,2.0625,2.0652,2.0656,2.0668,2.0696,2.0702,2.0713,2.0701,2.0769,2.077,2.0771,2.0768,2.0769,2.077,0,0,0,0,0,2.0514,2.0531,2.0535,2.0542,2.0582,2.0609,2.0615,2.0628,2.0626,2.0635,2.0651,2.0655,2.0708,2.0699,2.0706,2.0717,2.0769,2.077,2.0771,2.0767,2.0769,2.077,0,0,0,0,0,0,2.0504,2.0535,2.0539,2.0566,2.0585,2.0611,2.0624,2.063,2.065,2.0649,2.0665,2.0671,2.0697,2.0709,2.0699,2.0742,2.0738,2.0741,2.0733,2.0735,2.0736,2.0732,2.0703,0,0,0,0,0,2.0505,2.0525,2.0551,2.0572,2.0581,2.0601,2.0613,2.0622,2.0643,2.0651,2.0668,2.0688,2.0709,2.0723,2.0743,2.077,2.0776,2.0781,2.0782,2.0783,2.0785,2.0801,2.0804,2.0776,2.0776,2.0776,0,0,2.0507,2.0527,2.0538,2.057,2.0586,2.0607,2.0607,2.0629,2.0644,2.0654,2.068,2.0694,2.0717,2.0744,2.0757,2.0755,2.0794,2.0785,2.0785,2.0787,2.0803,2.0806,2.0808,2.0777,2.0777,2.0777,0,0,2.0522,2.0538,2.0558,2.0574,2.0599,2.0612,2.0617,2.0643,2.0653,2.0679,2.0688,2.0706,2.0742,2.0758,2.0771,2.0794,2.0799,2.08,2.0806,2.0822,2.0824,2.0826,2.0835,2.0838,2.0802,2.0802,2.0802,0,2.0521,2.0552,2.0567,2.0589,2.0603,2.0614,2.0634,2.0649,2.0679,2.0689,2.0687,2.0733,2.0749,2.0781,2.0787,2.0797,2.0803,2.0797,2.0823,2.0825,2.0827,2.0835,2.0838,2.0802,2.0802,2.0802,2.0802,0,2.0551,2.0573,2.0586,2.0615,2.0631,2.0651,2.067,2.0684,2.0692,2.0706,2.0733,2.0753,2.0779,2.0787,2.0795,2.082,2.0819,2.0819,2.0816,2.0829,2.0838,2.0841,2.0802,2.0802,2.0802,2.0802,0,0,2.056,2.0599,2.0603,2.0617,2.0646,2.0663,2.0684,2.071,2.0722,2.0742,2.0761,2.0792,2.0793,2.0808,2.0818,2.0832,2.0849,2.0831,2.0832,2.0834,2.0879,2.0878,2.0882,2.0853,2.0854,2.0854,2.0877,0,2.0578,2.0618,2.0632,2.0664,2.0685,2.0696,2.0715,2.0735,2.0748,2.0768,2.0783,2.0805,2.0805,2.0814,2.0828,2.0844,2.0858,2.0843,2.0871,2.0872,2.0865,2.0886,2.0885,2.0905,2.088,2.0881,2.0881,0,2.0605,2.0627,2.0661,2.0688,2.0697,2.0714,2.0739,2.0757,2.078,2.0789,2.0807,2.0816,2.084,2.0835,2.0868,2.0857,2.0869,2.0879,2.088,2.0883,2.0877,2.089,2.0912,2.0915,2.0886,2.0886,2.0886,0,2.0609,2.0646,2.0672,2.0684,2.0716,2.0728,2.0742,2.0764,2.0779,2.0801,2.0811,2.0835,2.0848,2.0867,2.0883,2.0877,2.0914,2.0911,2.0923,2.0922,2.093,2.0929,2.0955,2.0938,2.0938,2.0937,2.0937,0,2.0628,2.0648,2.0674,2.069,2.0714,2.0731,2.0754,2.0769,2.0789,2.0808,2.0819,2.0837,2.0857,2.0877,2.089,2.0915,2.0921,2.0929,2.0932,2.0928,2.0927,2.0937,2.0936,2.0938,2.0938,2.0938,2.0938,0,2.0636,2.0654,2.0683,2.0711,2.0719,2.0735,2.076,2.0776,2.079,2.0815,2.0821,2.0844,2.0869,2.0886,2.0918,2.0927,2.0954,2.0957,2.0947,2.0948,2.0959,2.0958,2.0992,2.0998,2.0976,2.0977,2.0977,0,2.0647,2.0663,2.0694,2.0707,2.0722,2.0743,2.0759,2.0777,2.0792,2.082,2.0833,2.0859,2.088,2.0919,2.0938,2.0963,2.0967,2.0977,2.097,2.0966,2.0967,2.0966,2.0968,2.0978,2.0978,2.0978,2.0978,0,2.0664,2.0673,2.0695,2.072,2.0738,2.0759,2.078,2.0791,2.0812,2.0829,2.0855,2.0871,2.0904,2.093,2.0957,2.0971,2.0978,2.098,2.0984,2.098,2.0974,2.0978,2.0949,2.0979,2.0979,2.0979,2.0979,2.0979,2.0674,2.069,2.0714,2.0738,2.0756,2.0776,2.0793,2.081,2.0831,2.086,2.0869,2.0896,2.0919,2.0956,2.0971,2.0992,2.0992,2.0998,2.0999,2.1001,2.1001,2.097,2.0997,2.0997,2.0997,2.0997,2.0997,0,2.0693,2.0709,2.0732,2.0761,2.078,2.0786,2.081,2.0826,2.0849,2.0871,2.0892,2.0922,2.0947,2.0969,2.0995,2.1008,2.1012,2.1014,2.1013,2.1017,2.0999,2.0993,2.101,2.101,2.101,2.101,2.101,2.101,2.0705,2.0732,2.0743,2.0779,2.0796,2.0822,2.0835,2.0854,2.0871,2.0904,2.0925,2.0939,2.0961,2.0989,2.1013,2.1019,2.1028,2.1029,2.1036,2.1019,2.1018,2.1016,2.1011,2.1031,2.1031,2.1051,2.1051,2.1052]},{"header":{"parameterUnit":"m.s-1","parameterCategory":1,"la1":30.2991,"la2":30.254,"lo1":-89.0895,"lo2":-89.0444,"dy":0.0017,"dx":0.0017,"nx":28,"ny":28,"refTime":"2024-07-16T09:00:00:Z","depth":0,"parameterNumber":3,"parameterNumberName":"V-component_of_WINDS"},"data":[0,0,0,0,0,0,0,0,0,0,0,0,0,0,0,0,0,0,0,0,0,0,0,0,0,0,0,0,0,0,0,0,0,0,0,0,0,0,0,0,0,0,0,0,0,0,0,0,0,0,0,0,0,0,0,0,0,0,0.1954,0.1953,0,0.1928,0.1928,0.1928,0.1916,0.1916,0.1916,0.1916,0.189,0.189,0.1889,0,0,0,0,0,0,0,0,0,0,0,0,0,0.1991,0.199,0.1954,0.1953,0.1953,0.1928,0.1928,0.1928,0.1916,0.1916,0.1916,0.1916,0.1891,0.189,0.1889,0,0,0,0,0,0,0,0,0,0,0,0,0,0.1971,0.199,0.1954,0.1944,0.1943,0.1929,0.1928,0.1928,0.1916,0.1916,0.1916,0.1916,0.1891,0.189,0.1889,0.1882,0,0,0.1886,0.1885,0,0,0,0,0,0,0,0,0.1972,0.197,0.1946,0.1945,0.1943,0.1925,0.1932,0.1912,0.1916,0.1926,0.1916,0.1916,0.1902,0.19,0.1895,0.1881,0.188,0.1886,0.1885,0.1885,0.1884,0,0,0,0,0,0,0,0.1973,0.1971,0.1944,0.1945,0.1944,0.1941,0.1938,0.1928,0.1914,0.1925,0.1924,0.1921,0.1901,0.1896,0.1895,0.188,0.1886,0.1885,0.1884,0.1884,0.1857,0.1857,0,0,0,0,0,0,0.1976,0.1972,0.1944,0.1943,0.1958,0.194,0.1937,0.1931,0.1914,0.1912,0.1921,0.1921,0.1898,0.1896,0.1894,0.1884,0.1885,0.1884,0.1883,0.1857,0.1857,0.1857,0,0,0,0,0,0,0.1977,0.1974,0.1945,0.1957,0.1953,0.1939,0.1933,0.1931,0.1926,0.1912,0.1909,0.1919,0.1898,0.1895,0.1885,0.1883,0.1883,0.1882,0.1857,0.1857,0.1857,0.1864,0,0,0,0,0,0,0.1978,0.1974,0.1972,0.1957,0.1953,0.1937,0.1933,0.193,0.1924,0.1923,0.1908,0.1906,0.1898,0.1886,0.1884,0.1881,0.1881,0.1857,0.1857,0.1857,0.1864,0.1864,0.1865,0,0,0,0,0,0.198,0.1976,0.1972,0.1969,0.1949,0.1937,0.1935,0.1925,0.1924,0.1921,0.1912,0.1907,0.1883,0.1885,0.1882,0.188,0.1857,0.1857,0.1857,0.1864,0.1864,0.1865,0,0,0,0,0,0,0.1991,0.1974,0.1969,0.196,0.195,0.1935,0.1932,0.1926,0.1916,0.1916,0.1904,0.1901,0.1892,0.1885,0.1887,0.1871,0.187,0.1869,0.1876,0.1877,0.1877,0.1879,0.1881,0,0,0,0,0,0.1993,0.1984,0.1969,0.1963,0.1958,0.1946,0.194,0.1933,0.1922,0.1918,0.1908,0.1898,0.1888,0.1882,0.1872,0.1863,0.1859,0.1859,0.186,0.186,0.1859,0.1852,0.1852,0.1856,0.1856,0.1856,0,0,0.1996,0.1985,0.1981,0.1965,0.1956,0.1947,0.1942,0.1933,0.1927,0.1917,0.1906,0.1898,0.1886,0.1876,0.1871,0.187,0.1857,0.186,0.186,0.1859,0.1852,0.1852,0.1852,0.1856,0.1856,0.1856,0,0,0.1997,0.1988,0.1981,0.1972,0.1959,0.1951,0.1949,0.1934,0.1928,0.1917,0.1909,0.1901,0.1885,0.1876,0.1869,0.1865,0.1859,0.1862,0.1863,0.1857,0.1856,0.1856,0.1854,0.1853,0.1861,0.1861,0.1861,0,0.2002,0.1989,0.1978,0.197,0.1962,0.1953,0.1945,0.1937,0.1921,0.1916,0.1915,0.1893,0.1884,0.1871,0.187,0.1865,0.1862,0.1864,0.1857,0.1857,0.1856,0.1854,0.1853,0.1862,0.1862,0.1862,0.1862,0,0.1996,0.1986,0.1982,0.1967,0.1959,0.1951,0.1939,0.1932,0.1926,0.1917,0.1905,0.1894,0.1881,0.1878,0.1872,0.1863,0.1863,0.186,0.1858,0.1856,0.1854,0.1853,0.1862,0.1862,0.1862,0.1862,0,0,0.2004,0.1982,0.198,0.1972,0.1956,0.1949,0.194,0.1927,0.1921,0.191,0.1902,0.1887,0.1884,0.1876,0.1869,0.1863,0.1859,0.1861,0.186,0.186,0.1848,0.185,0.1849,0.1855,0.1855,0.1855,0.1848,0,0.2002,0.1986,0.1975,0.1962,0.1953,0.1943,0.1935,0.1924,0.1915,0.1905,0.1896,0.1885,0.1882,0.1877,0.1871,0.1861,0.1856,0.1861,0.1847,0.1847,0.185,0.1848,0.185,0.1845,0.1847,0.1847,0.1847,0,0.1998,0.1987,0.1973,0.1956,0.1952,0.1945,0.1931,0.1923,0.191,0.1904,0.1894,0.1887,0.1876,0.1875,0.1859,0.1863,0.1856,0.185,0.1849,0.1848,0.1847,0.1845,0.1843,0.1842,0.1846,0.1846,0.1846,0,0.2004,0.1986,0.1975,0.1968,0.1949,0.1944,0.1936,0.1923,0.1915,0.1903,0.1898,0.1885,0.1878,0.1868,0.1857,0.1857,0.1842,0.184,0.1836,0.1836,0.1833,0.1834,0.1829,0.183,0.183,0.183,0.183,0,0.2003,0.1995,0.1977,0.197,0.196,0.1948,0.1938,0.1929,0.1917,0.1908,0.1899,0.189,0.1876,0.1865,0.1857,0.1844,0.1842,0.1836,0.1834,0.1837,0.1837,0.1832,0.1832,0.183,0.183,0.183,0.183,0,0.2009,0.1997,0.1984,0.1966,0.1961,0.1955,0.194,0.1932,0.1923,0.1911,0.1907,0.1892,0.1879,0.1867,0.185,0.1844,0.1831,0.1829,0.1836,0.1834,0.1831,0.1831,0.1822,0.182,0.1823,0.1823,0.1823,0,0.2009,0.2002,0.1983,0.1976,0.1968,0.1957,0.1949,0.1936,0.1928,0.1911,0.1906,0.1892,0.188,0.186,0.1847,0.1833,0.183,0.1828,0.1828,0.1831,0.1829,0.1829,0.1828,0.1828,0.1828,0.1828,0.1828,0,0.2009,0.2003,0.1992,0.1978,0.1968,0.1957,0.1945,0.194,0.1924,0.1915,0.1902,0.1893,0.1874,0.186,0.1845,0.1836,0.1829,0.1828,0.1826,0.1829,0.1833,0.183,0.1836,0.1828,0.1828,0.1828,0.1828,0.1828,0.2012,0.2005,0.199,0.1977,0.1967,0.1955,0.1947,0.1936,0.1924,0.1908,0.1901,0.1887,0.1873,0.1851,0.1842,0.1831,0.1829,0.1827,0.1826,0.1826,0.1826,0.1835,0.1828,0.1828,0.1828,0.1828,0.1828,0,0.2011,0.2001,0.1989,0.1972,0.1962,0.1956,0.1942,0.1934,0.1921,0.1909,0.1897,0.188,0.1866,0.1852,0.1837,0.183,0.1827,0.1827,0.1827,0.1825,0.1829,0.1831,0.183,0.183,0.183,0.183,0.183,0.183,0.201,0.1997,0.1989,0.1971,0.196,0.1946,0.1939,0.1928,0.1917,0.1899,0.1887,0.1878,0.1864,0.1848,0.1834,0.1831,0.1825,0.1826,0.1821,0.1825,0.1825,0.1825,0.1827,0.1825,0.1825,0.1818,0.1818,0.1818]}]]